Terug naar catalogus

ATLAS 5 CENTAUR DEB

LostHEO
NORAD 46655·DEBRIS·🇺🇸 United States

Gelanceerd Oct 17, 2018 vanaf Cape Canaveral Space Force Station

Loading…

Volgende Passages (komende 24 uur)

TLE

VerouderdSource: Space-Track

Epoch: Aug 28, 2023, 05:05 UTC

1 46655U 18079CH  23240.21225063 -.00000101  00000-0  00000+0 0  9995
2 46655  12.3162  80.1128 3606401 230.9332  91.0884  2.03711266 21545

Volg ATLAS 5 CENTAUR DEB in realtime met AllMySat

Download on the App Store